Theta_e
311 311 311 311 311 310 308 307 296 311 312 303 301 299 299 300 303 307 306 307 305 304 305 304 301 303 305 310 308 304 309 308 302 303 308 308 308 307 310 303 301 305 305 304
311 310 310 311 310 310 309 302 301 313 312 297 299 301 301 304 303 303 305 305 306 308 303 303 304 305 310 312 309 309 311 306 300 301 305 308 306 305 306 309 309 304 300 302
311 310 310 310 310 310 309 302 296 305 309 305 301 301 302 301 307 305 306 306 308 306 306 309 306 306 310 313 314 316 316 307 306 301 304 306 305 306 307 308 304 304 304 303
310 311 310 310 309 309 309 303 297 302 299 302 303 304 303 301 301 306 307 306 307 307 305 306 305 306 311 312 314 311 315 305 303 304 305 305 306 305 306 304 307 302 303 304
308 311 310 310 309 309 306 300 300 304 302 302 302 301 302 301 303 304 304 305 307 310 307 309 308 308 309 310 311 310 311 303 303 302 305 306 304 306 306 306 305 303 304 304
308 310 310 310 309 309 306 304 306 306 300 303 301 302 303 303 306 308 308 307 305 308 312 315 314 316 312 311 311 309 309 306 304 298 302 304 301 305 306 306 306 306 302 307
307 309 310 310 309 309 308 307 308 305 297 303 302 304 305 305 307 306 310 312 308 313 320 318 314 314 314 314 311 312 307 306 305 299 302 294 304 307 308 307 307 307 306 306
307 308 310 310 309 309 308 310 307 305 297 303 303 305 305 308 309 308 310 313 316 321 317 311 308 309 310 308 310 309 312 308 301 299 296 301 304 305 306 306 307 308 308 306
306 307 309 310 310 309 308 311 310 308 301 298 305 304 305 304 304 307 311 319 316 319 313 309 304 301 304 303 306 310 310 313 306 299 296 295 305 307 311 310 303 310 310 307
306 306 308 310 310 309 308 308 312 309 302 305 307 304 303 306 305 302 306 306 313 318 311 306 305 304 306 301 303 305 306 306 303 299 300 304 309 310 311 302 307 310 311 309
306 306 307 309 310 309 308 307 312 308 304 305 308 308 305 305 306 301 305 309 314 318 308 306 306 306 305 305 305 306 306 305 304 304 302 299 312 309 306 313 309 311 311 310
305 306 305 308 310 309 309 306 314 314 307 307 311 312 313 312 311 307 307 307 312 316 312 312 308 305 306 308 302 310 304 308 307 309 308 312 313 313 312 310 311 311 311 311
305 306 305 306 309 309 309 307 307 310 306 306 306 306 312 315 314 315 306 311 317 315 319 314 313 306 309 306 306 309 311 311 312 310 310 309 309 310 310 311 311 311 312 311
305 306 306 306 308 309 309 306 307 304 306 301 304 313 311 317 316 314 314 313 317 317 319 316 312 309 312 308 310 311 312 312 310 308 308 307 308 309 311 310 311 310 310 311
305 305 306 306 308 308 308 307 307 308 301 300 303 310 312 315 314 313 314 312 311 313 315 316 312 313 313 310 310 310 313 312 310 309 315 313 310 311 311 310 309 310 309 308
305 305 305 306 308 308 305 300 307 308 307 302 298 309 309 314 315 312 310 311 312 316 316 317 314 317 315 310 307 314 316 315 313 313 313 310 312 312 312 311 310 310 310 310
304 305 306 307 308 307 301 300 305 306 306 303 301 301 309 315 315 315 313 313 316 318 317 316 316 313 314 311 307 315 316 315 311 312 312 308 310 309 312 311 310 309 310 310
305 306 306 307 307 306 302 308 307 308 303 306 300 301 306 315 310 311 316 314 315 316 317 314 314 314 315 311 317 315 316 312 311 311 312 314 312 311 311 311 309 308 308 309
306 306 306 306 303 299 302 310 311 309 304 299 301 299 301 315 312 312 313 315 311 313 311 310 312 308 308 315 316 314 312 313 311 311 312 311 310 310 309 309 309 307 308 309
306 304 298 295 300 306 307 306 301 301 302 302 299 307 303 311 310 310 312 312 312 306 310 309 308 308 314 311 318 317 314 313 313 310 308 310 309 309 309 309 309 310 310 311
300 296 295 302 304 304 301 295 294 298 297 300 303 305 303 311 309 309 311 311 308 303 306 307 305 305 312 316 316 317 315 313 315 316 315 314 313 310 309 309 310 311 311 311
300 300 302 303 299 296 291 289 292 295 295 301 301 304 307 308 312 310 309 307 305 301 307 305 302 310 313 316 315 314 314 313 313 315 314 314 313 312 311 311 311 311 313 313
302 297 294 294 293 287 286 285 289 293 300 302 303 303 305 308 313 310 307 303 303 307 303 302 307 313 312 316 314 312 313 314 314 313 314 313 313 313 313 311 312 313 313 314
293 289 284 286 287 287 290 292 295 298 300 301 303 303 305 309 306 309 302 305 305 300 299 301 309 314 314 316 314 311 311 313 313 313 313 312 312 312 313 313 313 312 312 314
289 289 283 286 291 292 294 295 295 299 301 302 304 306 308 305 303 307 303 299 298 301 302 308 312 317 316 315 313 313 312 313 313 313 313 313 312 312 312 313 314 314 313 313
291 289 286 290 288 290 293 295 295 301 300 307 307 304 304 301 302 301 301 299 298 303 305 309 313 316 316 316 315 314 314 314 314 314 314 314 313 313 313 312 312 313 313 313
289 287 291 290 289 289 291 294 296 301 299 301 304 299 297 307 301 301 304 302 305 306 308 311 315 318 317 316 315 313 313 314 314 315 315 314 314 313 312 310 312 313 314 314
Wind_Speed
9 10 9 11 13 11 2 2 4 3 2 3 1 3 4 2 4 2 4 3 5 3 1 3 5 7 4 6 12 11 4 3 3 2 2 1 3 4 5 4 6 0 2 1
8 9 9 10 12 7 2 2 3 1 3 4 3 2 3 3 3 3 2 3 4 3 2 2 6 4 0 7 11 12 9 1 4 2 4 3 2 3 4 7 3 6 3 2
8 8 9 10 11 11 2 2 2 1 2 1 2 2 1 3 3 5 4 4 4 4 2 3 3 3 1 3 3 5 6 4 3 6 3 3 6 8 4 2 3 6 4 1
10 8 9 10 10 13 2 1 0 3 3 4 3 2 1 1 5 3 3 3 2 5 1 2 4 2 3 4 6 4 2 5 2 7 3 2 7 9 5 3 7 2 2 4
9 9 8 9 10 11 2 2 1 1 3 3 3 4 2 2 3 4 3 3 7 6 2 2 4 2 1 1 3 2 1 3 1 6 5 5 7 6 9 7 5 3 3 3
9 9 7 8 8 7 1 1 0 2 1 1 3 3 3 3 3 8 12 9 8 7 2 4 10 8 1 3 2 3 4 6 3 2 4 4 5 5 3 4 3 4 4 2
9 9 8 6 6 6 2 0 1 2 1 3 2 2 3 6 5 6 8 7 3 2 11 1 4 9 9 9 8 2 6 4 4 2 2 4 3 2 4 2 4 9 2 8
8 9 8 6 6 5 2 1 2 2 2 2 4 4 3 8 7 5 7 10 5 9 5 3 3 1 2 5 9 5 4 6 5 4 2 5 3 6 7 8 5 13 7 11
8 8 8 6 5 4 2 2 2 1 2 2 2 3 3 3 4 4 5 4 8 3 2 2 4 4 3 2 3 7 7 6 6 4 4 6 1 4 5 4 4 14 12 15
8 8 8 8 4 4 2 3 3 2 1 1 1 1 3 2 2 4 4 9 7 3 2 3 3 3 1 7 8 6 3 3 5 3 3 3 2 8 7 4 2 13 14 16
8 7 7 8 4 4 2 3 4 1 3 5 3 2 3 4 2 3 7 4 1 3 2 1 2 2 3 4 1 1 4 5 3 3 3 6 5 7 7 3 2 9 12 15
8 8 8 8 5 3 2 2 3 2 3 4 2 7 11 8 8 5 3 4 3 3 3 1 1 2 2 4 3 1 3 2 3 5 0 2 1 2 3 2 4 7 12 14
9 8 8 7 6 2 3 2 3 1 2 6 6 8 5 10 15 12 4 2 3 0 1 3 1 2 2 3 1 4 2 2 2 4 4 3 3 2 1 1 4 10 11 17
9 8 7 7 6 3 1 1 1 1 3 4 4 2 6 4 8 14 15 3 2 3 2 2 2 2 2 2 2 2 1 9 6 1 2 2 4 4 6 8 11 12 13 14
9 8 7 6 5 4 3 2 2 2 3 3 5 10 6 5 9 12 11 9 4 2 2 3 3 3 2 1 1 4 6 7 5 3 8 1 4 11 11 13 12 13 15 13
10 9 7 6 4 2 2 1 1 3 2 4 4 3 4 2 6 7 8 6 5 3 3 3 3 3 1 3 2 1 6 5 3 4 9 4 13 12 10 13 12 12 13 13
10 8 6 4 4 2 3 3 1 4 1 3 3 4 2 1 2 3 3 6 3 3 3 2 1 4 2 3 3 4 8 8 9 14 14 10 10 6 11 15 13 13 13 13
10 7 4 5 5 3 5 1 5 5 2 3 3 4 2 3 3 3 3 4 3 4 2 1 1 2 2 3 10 6 7 10 12 7 3 7 13 14 13 14 14 15 14 14
9 6 4 2 1 2 3 2 3 2 3 3 3 3 3 1 2 1 3 2 3 1 3 3 3 3 4 8 9 13 11 9 14 8 12 15 17 16 15 15 15 16 15 15
10 3 3 3 4 4 3 2 2 3 4 4 3 2 2 2 2 3 3 1 2 3 2 3 3 2 3 3 6 8 12 13 18 17 11 14 14 16 17 16 14 14 16 14
2 4 3 1 1 1 2 2 4 4 5 4 4 7 2 2 3 3 2 2 2 3 4 4 4 3 4 5 7 9 10 14 12 3 9 16 19 19 17 14 14 15 15 14
5 2 2 2 3 3 4 4 4 6 7 6 6 5 5 2 1 3 3 2 2 4 3 4 4 3 4 8 9 11 11 13 10 8 14 15 17 17 16 15 14 15 14 13
2 1 2 2 3 6 6 7 4 4 4 6 7 7 4 2 2 2 3 5 4 3 4 3 3 2 5 8 9 10 10 11 10 11 13 15 16 15 15 14 12 13 12 12
2 5 5 5 6 5 5 4 2 3 3 4 7 6 4 3 4 2 4 2 3 4 5 5 3 6 9 10 10 12 14 13 13 14 15 16 16 14 13 12 12 12 12 12
3 3 5 7 5 3 4 4 4 4 4 3 5 1 2 3 3 3 1 3 4 5 4 3 4 6 10 12 12 13 14 13 12 13 14 14 14 14 12 11 10 11 10 11
3 3 3 4 4 5 3 3 4 1 3 3 3 5 5 6 4 6 6 5 5 4 4 4 4 7 10 12 12 12 12 12 13 12 13 13 13 13 12 10 8 9 11 11
4 4 5 4 5 5 3 1 4 4 3 6 4 7 9 5 5 6 4 4 2 2 2 2 3 6 11 12 13 13 13 13 13 13 12 12 11 12 11 10 7 8 8 9
Wind_Direction
338 341 348 346 345 328 16 324 271 59 264 177 309 190 208 265 279 275 262 245 245 258 26 226 227 216 243 182 152 178 178 110 86 63 37 248 71 137 158 230 176 89 302 159
337 345 346 344 351 345 321 283 285 32 264 201 195 233 249 258 274 279 305 270 211 247 265 228 215 208 136 175 164 164 175 156 113 98 161 151 112 91 103 102 125 175 244 101
337 339 340 343 352 345 295 274 275 227 199 318 264 192 238 266 304 262 268 284 307 280 248 200 284 218 69 136 118 78 99 110 185 178 173 113 145 136 142 122 180 153 237 168
340 325 335 341 347 342 266 261 211 340 182 203 252 296 332 323 319 277 262 239 247 286 314 319 232 186 153 103 155 65 110 114 116 44 337 127 133 150 154 125 129 288 60 216
332 333 333 342 353 347 241 256 240 165 289 289 214 195 217 241 279 251 235 232 345 289 166 197 284 28 45 230 115 107 339 107 305 63 15 143 110 109 120 114 132 115 166 207
327 332 325 343 353 349 283 123 242 275 342 292 212 207 210 244 350 258 253 294 315 289 297 292 292 243 340 268 188 105 81 131 87 107 358 143 138 161 125 139 174 164 196 99
316 324 323 330 345 3 286 241 271 212 279 273 229 18 316 270 268 271 301 311 258 342 320 239 96 110 101 77 58 106 115 104 73 116 13 220 81 259 234 189 204 197 164 163
304 318 322 313 332 344 299 316 264 206 254 288 278 359 278 292 288 248 250 265 289 324 294 152 143 14 105 49 39 25 67 126 92 160 191 309 194 183 174 195 205 192 177 148
290 305 313 307 319 327 290 274 244 263 265 206 17 331 322 332 321 285 248 325 322 284 266 170 160 181 109 127 55 35 58 81 110 178 170 230 137 152 159 173 256 179 169 159
279 295 312 317 298 312 281 277 269 254 272 260 292 46 336 333 319 282 304 340 343 359 223 170 163 156 165 161 164 168 93 39 114 156 210 265 199 155 172 207 55 168 172 165
271 284 300 314 282 321 315 290 274 291 239 275 237 279 299 313 264 333 346 284 101 327 246 227 129 152 154 113 82 217 140 144 146 131 203 241 147 144 205 52 76 163 166 169
260 275 292 305 291 327 285 279 328 327 262 297 287 269 259 251 252 311 286 318 284 2 283 21 187 155 148 169 150 74 175 259 161 209 208 95 237 0 27 188 133 166 162 162
248 260 276 296 304 284 248 299 309 309 266 281 263 245 251 228 230 212 250 220 295 112 294 319 336 105 275 130 151 127 182 197 110 184 178 236 224 193 152 147 138 154 158 156
236 248 266 285 300 271 281 277 33 272 274 254 273 299 257 219 192 201 215 295 331 314 269 266 275 71 255 74 29 243 74 157 158 172 224 235 214 195 146 117 129 130 141 156
225 234 251 267 282 250 285 223 211 156 316 298 289 307 249 219 206 214 211 223 251 289 255 222 241 119 210 94 135 218 189 165 188 174 169 152 148 153 146 135 138 139 140 145
217 226 241 254 254 172 309 287 91 194 181 283 283 311 274 163 185 202 194 192 202 231 255 253 267 184 314 62 266 297 182 162 332 127 124 64 127 136 142 131 135 137 136 145
208 216 238 261 224 164 225 307 54 5 297 240 268 273 233 176 171 171 157 172 192 227 268 234 220 68 150 162 251 239 183 127 104 117 113 98 149 156 144 131 126 124 126 140
196 203 225 256 195 253 292 258 246 163 281 263 250 262 266 169 195 197 175 167 190 198 289 178 172 160 93 197 235 210 137 120 137 137 358 147 131 133 130 127 134 132 136 143
179 183 208 138 209 217 239 214 235 155 265 280 226 237 135 176 188 212 159 228 198 96 246 217 188 156 197 224 185 188 166 159 156 115 116 131 138 138 142 143 147 143 146 151
156 149 176 203 205 240 281 186 211 184 198 227 249 263 240 206 182 174 162 212 220 215 180 148 221 227 296 270 220 170 164 147 142 122 131 142 148 156 156 160 159 155 152 154
143 173 216 98 338 171 211 209 237 180 208 194 229 211 214 153 198 177 248 178 167 231 151 208 178 227 213 177 173 164 156 166 169 138 155 168 158 158 158 157 158 156 155 160
179 146 95 160 190 182 193 202 238 228 193 177 195 192 205 163 182 212 168 207 187 229 129 200 192 237 181 168 154 155 156 160 156 149 149 154 157 155 153 152 157 162 161 155
135 112 152 179 204 204 209 195 214 221 186 172 178 173 163 153 206 212 209 194 210 127 189 211 218 182 169 163 150 151 152 154 136 133 142 146 148 151 151 150 154 156 159 161
160 153 197 220 184 225 209 229 317 356 293 219 186 161 185 166 182 170 214 128 168 184 187 207 200 208 177 168 161 154 160 158 147 144 145 148 150 151 149 147 152 157 165 165
141 175 212 218 255 299 287 302 306 270 275 247 153 133 210 166 195 198 151 170 208 209 189 215 221 181 160 163 167 160 158 157 149 148 147 150 149 149 147 152 153 154 150 161
189 227 244 227 268 265 234 241 263 254 289 223 229 161 207 190 174 178 194 168 191 182 219 223 160 167 169 167 164 162 156 151 146 148 147 147 151 152 149 143 144 153 156 162
200 225 220 243 284 272 285 296 274 316 276 188 199 206 189 128 183 188 178 196 220 265 284 318 271 196 168 160 153 153 148 145 145 140 142 132 129 129 134 145 153 155 160 163